Previsão horária em Abdulkasimovo

Hoje, 11 Abril, Domingo

Tempo Temperatura Precipitação Vento Pressão Humidade
00:00 +2°C° 0 mm 2 m/s 726 mmHg 99%
01:00 +2°C° 0 mm 2 m/s 726 mmHg 99%
02:00 +1°C° 0 mm 2 m/s 726 mmHg 98%
03:00 +1°C° 0 mm 2 m/s 726 mmHg 97%
04:00 -1°C° 0 mm 2 m/s 726 mmHg 97%
05:00 +1°C° 0 mm 2 m/s 726 mmHg 94%
06:00 +1°C° 0 mm 2 m/s 726 mmHg 91%
07:00 +1°C° 0 mm 2 m/s 726 mmHg 88%
08:00 +2°C° 0 mm 3 m/s 726 mmHg 84%
09:00 +4°C° 0 mm 3 m/s 726 mmHg 79%
10:00 +5°C° 0 mm 3 m/s 726 mmHg 75%
11:00 +7°C° 0 mm 3 m/s 726 mmHg 74%
12:00 +8°C° 0 mm 3 m/s 726 mmHg 73%
13:00 +9°C° 0 mm 3 m/s 725 mmHg 73%
14:00 +9°C° 0 mm 3 m/s 725 mmHg 74%
15:00 +9°C° 0 mm 3 m/s 725 mmHg 76%
16:00 +9°C° 0 mm 3 m/s 725 mmHg 78%
17:00 +8°C° 0 mm 3 m/s 725 mmHg 83%
18:00 +6°C° 0 mm 2 m/s 725 mmHg 88%
19:00 +5°C° 0 mm 2 m/s 725 mmHg 94%
20:00 +5°C° 0 mm 2 m/s 725 mmHg 93%
21:00 +6°C° 0 mm 1 m/s 725 mmHg 92%
22:00 +6°C° 0 mm 1 m/s 725 mmHg 91%
23:00 +5°C° 0 mm 1 m/s 725 mmHg 90%

Amanhã, 12 Abril, Segunda-feira

Tempo Temperatura Precipitação Vento Pressão Humidade
00:00 +5°C° 0 mm 1 m/s 725 mmHg 89%
01:00 +5°C° 0 mm 1 m/s 725 mmHg 88%
02:00 +5°C° 0 mm 1 m/s 726 mmHg 87%
03:00 +5°C° 0 mm 1 m/s 726 mmHg 87%
04:00 +5°C° 0 mm 1 m/s 726 mmHg 86%
05:00 +5°C° 0 mm 0 m/s 726 mmHg 84%
06:00 +6°C° 0 mm 0 m/s 726 mmHg 83%
07:00 +7°C° 0 mm 0 m/s 726 mmHg 81%
08:00 +8°C° 0 mm 0 m/s 726 mmHg 76%
09:00 +11°C° 0 mm 1 m/s 726 mmHg 71%
10:00 +13°C° 0 mm 1 m/s 727 mmHg 65%
11:00 +14°C° 0 mm 1 m/s 727 mmHg 63%
12:00 +14°C° 0 mm 2 m/s 727 mmHg 61%
13:00 +15°C° 0 mm 2 m/s 727 mmHg 59%
14:00 +15°C° 0 mm 2 m/s 727 mmHg 61%
15:00 +15°C° 0 mm 2 m/s 727 mmHg 62%
16:00 +14°C° 0 mm 2 m/s 727 mmHg 63%
17:00 +13°C° 0 mm 2 m/s 727 mmHg 71%
18:00 +12°C° 0 mm 2 m/s 727 mmHg 80%
19:00 +9°C° 0 mm 2 m/s 727 mmHg 88%
20:00 +10°C° 0 mm 1 m/s 727 mmHg 91%
21:00 +9°C° 0 mm 1 m/s 727 mmHg 93%
22:00 +9°C° 0 mm 1 m/s 728 mmHg 96%
23:00 +9°C° 0 mm 1 m/s 728 mmHg 97%

Depois de amanhã, 13 Abril, Terça-feira

Tempo Temperatura Precipitação Vento Pressão Humidade
00:00 +8°C° 0 mm 1 m/s 728 mmHg 97%
01:00 +8°C° 0 mm 1 m/s 728 mmHg 98%
02:00 +8°C° 0 mm 1 m/s 728 mmHg 98%
03:00 +8°C° 0 mm 1 m/s 728 mmHg 98%
04:00 +8°C° 0 mm 1 m/s 728 mmHg 98%
05:00 +8°C° 0 mm 1 m/s 728 mmHg 97%
06:00 +8°C° 0 mm 1 m/s 728 mmHg 96%
07:00 +8°C° 0 mm 1 m/s 728 mmHg 94%
08:00 +9°C° 0 mm 1 m/s 728 mmHg 88%
09:00 +9°C° 0 mm 2 m/s 728 mmHg 82%
10:00 +10°C° 0 mm 2 m/s 728 mmHg 76%
11:00 +12°C° 0 mm 2 m/s 728 mmHg 71%
12:00 +13°C° 0 mm 2 m/s 727 mmHg 66%
13:00 +14°C° 0 mm 2 m/s 727 mmHg 61%
14:00 +14°C° 0 mm 2 m/s 727 mmHg 60%
15:00 +14°C° 0 mm 2 m/s 727 mmHg 59%
16:00 +14°C° 0 mm 2 m/s 726 mmHg 58%
17:00 +13°C° 0 mm 2 m/s 726 mmHg 66%
18:00 +12°C° 0 mm 2 m/s 726 mmHg 73%
19:00 +9°C° 0 mm 2 m/s 726 mmHg 81%
20:00 +9°C° 0 mm 2 m/s 726 mmHg 84%
21:00 +8°C° 0 mm 2 m/s 725 mmHg 87%
22:00 +7°C° 0 mm 2 m/s 725 mmHg 90%
23:00 +8°C° 0 mm 1 m/s 725 mmHg 90%

14 Abril, Quarta-feira

Tempo Temperatura Precipitação Vento Pressão Humidade
00:00 +8°C° 0 mm 1 m/s 725 mmHg 90%
01:00 +7°C° 0 mm 1 m/s 724 mmHg 90%
02:00 +7°C° 0 mm 1 m/s 724 mmHg 89%
03:00 +7°C° 0 mm 1 m/s 724 mmHg 88%
04:00 +6°C° 0 mm 1 m/s 724 mmHg 87%
05:00 +7°C° 0 mm 1 m/s 724 mmHg 83%
06:00 +8°C° 0 mm 1 m/s 724 mmHg 79%
07:00 +8°C° 0 mm 0 m/s 724 mmHg 76%
08:00 +10°C° 0 mm 0 m/s 723 mmHg 68%
09:00 +11°C° 0 mm 0 m/s 723 mmHg 61%
10:00 +13°C° 0 mm 0 m/s 723 mmHg 54%
11:00 +15°C° 0 mm 1 m/s 722 mmHg 53%
12:00 +16°C° 0 mm 1 m/s 722 mmHg 52%
13:00 +18°C° 0 mm 1 m/s 722 mmHg 51%
14:00 +18°C° 0 mm 1 m/s 721 mmHg 50%
15:00 +18°C° 0 mm 1 m/s 721 mmHg 49%
16:00 +18°C° 0 mm 1 m/s 721 mmHg 48%
17:00 +16°C° 0 mm 1 m/s 720 mmHg 55%
18:00 +14°C° 0 mm 1 m/s 720 mmHg 62%
19:00 +13°C° 0 mm 1 m/s 719 mmHg 68%
20:00 +12°C° 0 mm 1 m/s 719 mmHg 70%
21:00 +11°C° 0 mm 1 m/s 719 mmHg 72%
22:00 +10°C° 0 mm 1 m/s 719 mmHg 74%
23:00 +10°C° 0 mm 1 m/s 719 mmHg 74%

15 Abril, Quinta-feira

Tempo Temperatura Precipitação Vento Pressão Humidade
00:00 +9°C° 0 mm 1 m/s 718 mmHg 75%
01:00 +9°C° 0 mm 1 m/s 718 mmHg 75%
02:00 +8°C° 0 mm 1 m/s 718 mmHg 75%
03:00 +8°C° 0 mm 1 m/s 718 mmHg 75%
04:00 +7°C° 0 mm 1 m/s 717 mmHg 75%
05:00 +8°C° 0 mm 1 m/s 717 mmHg 73%
06:00 +8°C° 0 mm 0 m/s 717 mmHg 70%
07:00 +8°C° 0 mm 0 m/s 717 mmHg 67%
08:00 +10°C° 0 mm 0 m/s 717 mmHg 60%
09:00 +12°C° 0 mm 0 m/s 717 mmHg 53%
10:00 +14°C° 0 mm 0 m/s 716 mmHg 46%
11:00 +15°C° 0 mm 0 m/s 716 mmHg 42%
12:00 +18°C° 0 mm 1 m/s 716 mmHg 38%
13:00 +19°C° 0 mm 1 m/s 715 mmHg 34%
14:00 +19°C° 0 mm 1 m/s 715 mmHg 33%
15:00 +19°C° 0 mm 1 m/s 715 mmHg 31%
16:00 +19°C° 0 mm 1 m/s 714 mmHg 30%
17:00 +16°C° 0 mm 1 m/s 714 mmHg 39%
18:00 +15°C° 0 mm 1 m/s 713 mmHg 47%
19:00 +13°C° 0 mm 1 m/s 713 mmHg 55%
20:00 +12°C° 0 mm 1 m/s 713 mmHg 58%
21:00 +11°C° 0 mm 1 m/s 712 mmHg 62%
22:00 +10°C° 0 mm 1 m/s 712 mmHg 65%
23:00 +10°C° 0 mm 1 m/s 712 mmHg 65%

16 Abril, Sexta-feira

Tempo Temperatura Precipitação Vento Pressão Humidade
00:00 +9°C° 0 mm 1 m/s 711 mmHg 65%
01:00 +9°C° 0 mm 1 m/s 711 mmHg 65%
02:00 +8°C° 0 mm 1 m/s 711 mmHg 65%
03:00 +8°C° 0 mm 1 m/s 710 mmHg 64%
04:00 +7°C° 0 mm 1 m/s 710 mmHg 64%
05:00 +8°C° 0 mm 1 m/s 710 mmHg 61%
06:00 +9°C° 0 mm 1 m/s 709 mmHg 59%
07:00 +8°C° 0 mm 0 m/s 709 mmHg 56%
08:00 +11°C° 0 mm 1 m/s 709 mmHg 50%
09:00 +13°C° 0 mm 1 m/s 709 mmHg 45%
10:00 +15°C° 0 mm 1 m/s 709 mmHg 39%
11:00 +16°C° 0 mm 1 m/s 708 mmHg 37%
12:00 +17°C° 0 mm 2 m/s 708 mmHg 36%
13:00 +18°C° 0 mm 2 m/s 708 mmHg 34%
14:00 +18°C° 0 mm 2 m/s 707 mmHg 33%
15:00 +18°C° 0 mm 2 m/s 707 mmHg 32%
16:00 +18°C° 0 mm 2 m/s 707 mmHg 31%
17:00 +16°C° 0 mm 2 m/s 707 mmHg 38%
18:00 +15°C° 0 mm 2 m/s 706 mmHg 45%
19:00 +13°C° 0 mm 1 m/s 706 mmHg 51%
20:00 +13°C° 0 mm 1 m/s 706 mmHg 54%
21:00 +12°C° 0 mm 1 m/s 706 mmHg 57%
22:00 +11°C° 0 mm 0 m/s 706 mmHg 60%
23:00 +11°C° 0 mm 1 m/s 706 mmHg 62%
Mostrar mais

Necessitamos do seu Consentimento

A Meteoprog e os seus Fornecedores de Serviços podem armazenar e aceder a dados pessoais como cookies, identificadores do dispositivo ou outras tecnologias semelhantes existentes no seu dispositivo e processar estes dados para personalizar conteúdos e anúncios, assim como funcionalidades nas redes sociais e análise de tráfego.

  • Armazenar e/ou aceder a informações no seu dispositivo

    Os cookies, identificadores do dispositivo ou outras informações podem ser armazenados ou acedidos no seu dispositivo, para os fins acima indicados.

  • Anúncios e conteúdos personalizados, medição de anúncios e conteúdos, dados sobre o público-alvo e desenvolvimento de produtos

    Os anúncios e os conteúdos podem ser personalizados com base num perfil. Podem ser adicionados dados adicionais para uma maior personalização dos anúncios e dos conteúdos. A eficácia dos anúncios e dos conteúdos pode ser medida. Podem ser obtidas informações sobre o público que visualizou os anúncios e os conteúdos. Estes dados podem ser usados para desenvolver ou melhorar sistemas, softwares ou a experiência do utilizador.

Ao clicar em "Eu concordo”, permitirá o uso de cookies, identificadores do dispositivo e web beacons mencionados ou outras tecnologias semelhantes. As configurações do navegador do seu dispositivo podem ser alteradas.

Para certos fins, podem ser invocados interesses legítimos ao invés de consentimento. Pode ler mais informação sobre este assunto na nossa Política de Privacidade e Cookies.